MNG6893 ZMCK-UHHH

Flight info

Callsign MNG6893
Flight time N/A
Altitude 35100
Route KIDID G338 AKTOS/K0839S1130 G338 KAGAK A345 HLD B451 HRB G212 ARGUK ARGU6C/05L
Aircraft A319/M-SDE3FGHIRWY/LB1

Departure

Time N/A
Airport Ulaanbaatar Chinggis Khaan International Airport (ZMCK)

Arrival

Time 2026-04-23 15:18
Airport Khabarovsk Novy Airport (UHHH)
Time Latitude Longitude Altitude Speed Heading
2026-04-23 14:31 46.99978 128.54073 38998 ft 529 kts 97°
2026-04-23 14:31 46.99620 128.58951 38998 ft 529 kts 97°
2026-04-23 14:32 46.98859 128.69218 38996 ft 529 kts 97°
2026-04-23 14:32 46.98086 128.79533 38997 ft 529 kts 97°
2026-04-23 14:33 46.97281 128.90122 38997 ft 528 kts 97°
2026-04-23 14:33 46.96458 129.00801 38998 ft 526 kts 97°
2026-04-23 14:34 46.95684 129.10730 38998 ft 524 kts 97°
2026-04-23 14:34 46.94821 129.21669 38998 ft 523 kts 97°
2026-04-23 14:35 46.94120 129.30447 38998 ft 523 kts 97°
2026-04-23 14:35 46.93124 129.42732 38998 ft 523 kts 97°
2026-04-23 14:36 46.92259 129.53250 38998 ft 522 kts 97°
2026-04-23 14:36 46.91390 129.63750 38999 ft 522 kts 97°
2026-04-23 14:37 46.90541 129.73940 38996 ft 522 kts 98°
2026-04-23 14:37 46.89771 129.83023 38996 ft 522 kts 98°
2026-04-23 14:38 46.88714 129.94971 38998 ft 522 kts 98°
2026-04-23 14:38 46.87796 130.05460 38997 ft 522 kts 98°
2026-04-23 14:39 46.86877 130.15968 38995 ft 522 kts 98°
2026-04-23 14:39 46.85954 130.26454 38998 ft 522 kts 98°
2026-04-23 14:40 46.85184 130.36928 38998 ft 523 kts 92°
2026-04-23 14:40 46.85411 130.46549 38995 ft 522 kts 82°
2026-04-23 14:41 46.87112 130.57733 38998 ft 520 kts 69°
2026-04-23 14:41 46.89676 130.67479 38995 ft 518 kts 65°
2026-04-23 14:42 46.92383 130.77280 38997 ft 519 kts 66°
2026-04-23 14:42 46.95031 130.87048 38997 ft 519 kts 66°
2026-04-23 14:43 46.97621 130.96730 38998 ft 518 kts 66°
2026-04-23 14:43 47.00241 131.06586 38998 ft 517 kts 66°
2026-04-23 14:44 47.02828 131.16357 38997 ft 517 kts 67°
2026-04-23 14:44 47.05397 131.26115 38997 ft 517 kts 67°
2026-04-23 14:45 47.07413 131.33800 38997 ft 517 kts 67°
2026-04-23 14:45 47.09690 131.42508 38997 ft 517 kts 67°
2026-04-23 14:47 47.17516 131.72476 38996 ft 517 kts 68°
2026-04-23 14:47 47.20050 131.82358 38997 ft 517 kts 68°
2026-04-23 14:48 47.22562 131.92178 38997 ft 517 kts 68°
2026-04-23 14:48 47.25097 132.02122 38997 ft 517 kts 68°
2026-04-23 14:49 47.27002 132.09627 38997 ft 517 kts 68°
2026-04-23 14:49 47.28885 132.17067 38997 ft 517 kts 68°
2026-04-23 14:50 47.30924 132.25153 38997 ft 517 kts 68°
2026-04-23 14:50 47.33866 132.36861 38997 ft 517 kts 68°
2026-04-23 14:51 47.36339 132.46756 38997 ft 517 kts 68°
2026-04-23 14:51 47.37571 132.51701 38773 ft 519 kts 68°
2026-04-23 14:51 47.38807 132.56674 38249 ft 518 kts 68°
2026-04-23 14:52 47.39801 132.60686 37717 ft 518 kts 68°
2026-04-23 14:52 47.41258 132.66586 36875 ft 518 kts 69°
2026-04-23 14:52 47.42141 132.70181 36315 ft 518 kts 69°
2026-04-23 14:52 47.43457 132.75569 35494 ft 516 kts 69°
2026-04-23 14:53 47.44665 132.80518 34736 ft 517 kts 69°
2026-04-23 14:53 47.45522 132.84030 34176 ft 519 kts 69°
2026-04-23 14:53 47.47089 132.90456 33155 ft 520 kts 69°
2026-04-23 14:53 47.48295 132.95399 32376 ft 521 kts 69°
2026-04-23 14:54 47.49520 133.00430 31598 ft 521 kts 69°
2026-04-23 14:54 47.50511 133.04506 30954 ft 518 kts 69°
2026-04-23 14:54 47.51940 133.10388 30155 ft 511 kts 69°
2026-04-23 14:54 47.53122 133.15265 29562 ft 503 kts 69°
2026-04-23 14:55 47.53902 133.18494 29262 ft 499 kts 69°
2026-04-23 14:55 47.55115 133.23514 28779 ft 495 kts 69°
2026-04-23 14:55 47.56325 133.28538 28296 ft 491 kts 69°
2026-04-23 14:55 47.57061 133.31602 28005 ft 488 kts 69°
2026-04-23 14:56 47.58569 133.37886 27297 ft 481 kts 69°
2026-04-23 14:56 47.59390 133.41315 26776 ft 478 kts 69°
2026-04-23 14:56 47.60766 133.47078 25956 ft 473 kts 69°
2026-04-23 14:56 47.61850 133.51630 25417 ft 465 kts 69°
2026-04-23 14:57 47.62906 133.56070 25013 ft 456 kts 69°
2026-04-23 14:57 47.63958 133.60496 24540 ft 451 kts 69°
2026-04-23 14:57 47.64995 133.64867 24052 ft 447 kts 69°
2026-04-23 14:57 47.65995 133.69098 23527 ft 442 kts 70°
2026-04-23 14:58 47.66837 133.72676 22967 ft 440 kts 70°
2026-04-23 14:58 47.67992 133.77596 22330 ft 434 kts 70°
2026-04-23 14:58 47.68563 133.80029 22013 ft 431 kts 70°
2026-04-23 14:58 47.69779 133.85219 21336 ft 426 kts 70°
2026-04-23 14:59 47.70857 133.89827 20738 ft 421 kts 70°
2026-04-23 14:59 47.71488 133.92526 20443 ft 417 kts 70°
2026-04-23 14:59 47.72662 133.97559 19850 ft 411 kts 70°
2026-04-23 14:59 47.73605 134.01605 19356 ft 408 kts 70°
2026-04-23 15:00 47.74194 134.04137 19074 ft 405 kts 70°
2026-04-23 15:00 47.75412 134.09384 18397 ft 403 kts 70°
2026-04-23 15:00 47.76317 134.13294 17950 ft 398 kts 70°
2026-04-23 15:00 47.76928 134.15939 17624 ft 395 kts 70°
2026-04-23 15:01 47.79594 134.27507 16193 ft 383 kts 70°
2026-04-23 15:01 47.80505 134.31473 15753 ft 377 kts 70°
2026-04-23 15:02 47.80929 134.33318 15549 ft 374 kts 70°
2026-04-23 15:02 47.81574 134.36130 15250 ft 370 kts 70°
2026-04-23 15:02 47.82864 134.41759 14659 ft 362 kts 70°
2026-04-23 15:02 47.83521 134.44632 14360 ft 357 kts 70°
2026-04-23 15:03 47.84298 134.48036 14009 ft 352 kts 70°
2026-04-23 15:03 47.85229 134.52121 13594 ft 346 kts 70°
2026-04-23 15:03 47.85990 134.55470 13257 ft 341 kts 70°
2026-04-23 15:03 47.86737 134.58763 12924 ft 336 kts 70°
2026-04-23 15:04 47.87491 134.62042 12552 ft 333 kts 68°
2026-04-23 15:04 47.88677 134.64995 12120 ft 330 kts 45°
2026-04-23 15:04 47.90515 134.66950 11727 ft 323 kts 22°
2026-04-23 15:04 47.91909 134.67702 11487 ft 320 kts 15°
2026-04-23 15:05 47.94705 134.68929 10960 ft 317 kts 14°
2026-04-23 15:05 47.96789 134.69820 10617 ft 311 kts 14°
2026-04-23 15:05 47.97545 134.70149 10459 ft 304 kts 14°
2026-04-23 15:05 48.00414 134.71423 9686 ft 288 kts 14°
2026-04-23 15:06 48.02332 134.72292 9294 ft 286 kts 14°
2026-04-23 15:06 48.04233 134.73160 8946 ft 285 kts 14°
2026-04-23 15:06 48.05317 134.73659 8790 ft 284 kts 14°
2026-04-23 15:07 48.09778 134.75720 8027 ft 256 kts 14°
2026-04-23 15:07 48.11438 134.76486 7722 ft 246 kts 14°
2026-04-23 15:07 48.12474 134.76964 7538 ft 243 kts 14°
2026-04-23 15:07 48.13297 134.77342 7391 ft 241 kts 14°
2026-04-23 15:08 48.14607 134.77945 7200 ft 240 kts 14°
2026-04-23 15:08 48.16385 134.78769 7017 ft 233 kts 14°
2026-04-23 15:09 48.20579 134.80716 6861 ft 216 kts 14°
2026-04-23 15:09 48.24547 134.83311 6452 ft 214 kts 24°
2026-04-23 15:09 48.25993 134.84419 6218 ft 213 kts 24°
2026-04-23 15:10 48.26750 134.84998 6099 ft 212 kts 24°
2026-04-23 15:10 48.28349 134.86212 5883 ft 208 kts 24°
2026-04-23 15:10 48.30613 134.88432 5581 ft 201 kts 37°
2026-04-23 15:11 48.31374 134.89445 5513 ft 189 kts 38°
2026-04-23 15:11 48.32521 134.91000 4867 ft 196 kts 39°
2026-04-23 15:11 48.33604 134.92476 4387 ft 192 kts 39°
2026-04-23 15:11 48.34583 134.93813 4040 ft 184 kts 39°
2026-04-23 15:12 48.35497 134.95052 3873 ft 167 kts 38°
2026-04-23 15:12 48.36322 134.96167 3733 ft 161 kts 38°
2026-04-23 15:12 48.37060 134.97159 3615 ft 160 kts 38°
2026-04-23 15:12 48.37963 134.98375 3442 ft 159 kts 38°
2026-04-23 15:13 48.38789 134.99489 3250 ft 158 kts 38°
2026-04-23 15:13 48.39600 135.00586 3033 ft 153 kts 38°
2026-04-23 15:13 48.40356 135.01613 2830 ft 142 kts 38°
2026-04-23 15:13 48.41061 135.02571 2640 ft 133 kts 38°
2026-04-23 15:14 48.41544 135.03227 2513 ft 132 kts 38°
2026-04-23 15:14 48.42329 135.04292 2301 ft 130 kts 39°
2026-04-23 15:14 48.42998 135.05199 2109 ft 130 kts 39°
2026-04-23 15:14 48.43671 135.06111 1966 ft 128 kts 39°
2026-04-23 15:15 48.44137 135.06743 1964 ft 129 kts 39°
2026-04-23 15:15 48.45278 135.08292 1969 ft 127 kts 39°
2026-04-23 15:15 48.45794 135.09013 1958 ft 120 kts 41°
2026-04-23 15:16 48.46401 135.09863 1882 ft 118 kts 40°
2026-04-23 15:16 48.47010 135.10683 1607 ft 117 kts 39°
2026-04-23 15:16 48.47504 135.11354 1355 ft 116 kts 41°
2026-04-23 15:16 48.48161 135.12271 1203 ft 115 kts 40°
2026-04-23 15:17 48.49424 135.13919 881 ft 116 kts 41°
2026-04-23 15:17 48.50017 135.14748 755 ft 115 kts 42°
2026-04-23 15:17 48.50610 135.15561 607 ft 114 kts 41°
2026-04-23 15:18 48.51156 135.16307 418 ft 113 kts 42°
2026-04-23 15:18 48.51482 135.16754 338 ft 112 kts 41°
2026-04-23 15:18 48.52033 135.17525 251 ft 95 kts 42°
2026-04-23 15:18 48.52382 135.17999 251 ft 32 kts 43°
2026-04-23 15:19 48.52505 135.18167 251 ft 13 kts 41°
2026-04-23 15:19 48.52538 135.18216 251 ft 10 kts 53°
2026-04-23 15:19 48.52556 135.18233 251 ft 2 kts 307°
2026-04-23 15:19 48.52552 135.18214 251 ft 4 kts 232°
2026-04-23 15:20 48.52513 135.18172 251 ft 21 kts 219°
2026-04-23 15:20 48.52424 135.18050 251 ft 13 kts 222°
2026-04-23 15:20 48.52373 135.17979 251 ft 11 kts 223°
2026-04-23 15:20 48.52327 135.17915 251 ft 11 kts 223°
2026-04-23 15:21 48.52292 135.17851 251 ft 8 kts 248°
2026-04-23 15:21 48.52298 135.17770 251 ft 10 kts 305°
2026-04-23 15:21 48.52326 135.17725 251 ft 10 kts 313°
2026-04-23 15:21 48.52360 135.17670 251 ft 2 kts 312°
2026-04-23 15:22 48.52377 135.17641 251 ft 2 kts 313°
2026-04-23 15:22 48.52392 135.17616 251 ft 3 kts 312°
2026-04-23 15:22 48.52412 135.17583 251 ft 4 kts 312°
2026-04-23 15:22 48.52436 135.17541 251 ft 6 kts 311°
2026-04-23 15:23 48.52455 135.17509 251 ft 6 kts 311°
2026-04-23 15:23 48.52468 135.17487 251 ft 7 kts 311°
2026-04-23 15:23 48.52510 135.17415 251 ft 7 kts 312°
2026-04-23 15:23 48.52540 135.17360 251 ft 5 kts 311°
2026-04-23 15:24 48.52553 135.17339 251 ft 3 kts 312°
2026-04-23 15:24 48.52562 135.17323 251 ft 2 kts 312°
2026-04-23 15:24 48.52566 135.17317 251 ft 1 kts 312°
2026-04-23 15:24 48.52571 135.17308 251 ft 1 kts 310°
2026-04-23 15:25 48.52577 135.17297 251 ft 0 kts 312°
2026-04-23 15:25 48.52578 135.17296 251 ft 0 kts 312°